CW8767 Weather Reports


time (UTC)temp
C
wind
direction
speed
KPH
gust
KPH
rain 1hr
cm
rain 24hr
cm
rain mn
cm
humidity
%
barometer
mb
20260510175205 28 202 0.0 1.6 0.00 0.00 0.00 40 1011.8
20260510174704 28 60 0.0 1.6 0.00 0.00 0.00 41 1011.8
20260510174205 28 9 0.0 0.0 0.00 0.00 0.00 39 1011.8
20260510173705 28 139 0.0 1.6 0.00 0.00 0.00 40 1011.8
20260510172205 27 121 0.0 4.8 0.00 0.00 0.00 41 1011.8
20260510171705 27 312 0.0 1.6 0.00 0.00 0.00 40 1011.8
20260510171204 27 314 0.0 4.8 0.00 0.00 0.00 39 1011.8
20260510170704 27 272 1.6 4.8 0.00 0.00 0.00 38 1011.8
20260510170205 27 42 1.6 4.8 0.00 0.00 0.00 39 1011.8
20260510165704 28 276 1.6 4.8 0.00 0.00 0.00 41 1011.8
20260510165205 27 112 1.6 4.8 0.00 0.00 0.00 45 1011.8
20260510164705 27 92 0.0 3.2 0.00 0.00 0.00 45 1011.8
20260510164204 27 274 1.6 4.8 0.00 0.00 0.00 42 1011.8
20260510163705 27 0 0.0 3.2 0.00 0.00 0.00 44 1012.2
20260510163205 27 287 1.6 8.0 0.00 0.00 0.00 42 1012.2
20260510162705 27 144 0.0 4.8 0.00 0.00 0.00 42 1012.2
20260510162205 27 117 0.0 1.6 0.00 0.00 0.00 41 1012.2
20260510161705 27 123 0.0 4.8 0.00 0.00 0.00 43 1012.2
20260510160704 27 120 0.0 8.0 0.00 0.00 0.00 46 1012.2
20260510160204 27 134 0.0 4.8 0.00 0.00 0.00 49 1012.2
20260510155704 27 84 1.6 4.8 0.00 0.00 0.00 45 1012.2
20260510155204 27 84 0.0 4.8 0.00 0.00 0.00 48 1012.2
20260510154704 26 30 0.0 4.8 0.00 0.00 0.00 46 1012.5
20260510154205 26 281 0.0 1.6 0.00 0.00 0.00 47 1012.5
20260510153705 26 275 0.0 1.6 0.00 0.00 0.00 46 1012.5
20260510153204 26 275 0.0 1.6 0.00 0.00 0.00 47 1012.5
20260510152704 26 262 0.0 1.6 0.00 0.00 0.00 47 1012.5
20260510152204 27 129 0.0 0.0 0.00 0.00 0.00 49 1012.5
20260510151704 26 117 0.0 1.6 0.00 0.00 0.00 48 1012.5
20260510151204 26 110 0.0 1.6 0.00 0.00 0.00 47 1012.5
20260510150704 26 112 0.0 1.6 0.00 0.00 0.00 49 1012.5
20260510150204 26 116 1.6 4.8 0.00 0.00 0.00 47 1012.5
20260510145704 26 46 0.0 1.6 0.00 0.00 0.00 50 1012.5
20260510145204 26 100 0.0 0.0 0.00 0.00 0.00 50 1012.4
20260510144704 26 100 0.0 1.6 0.00 0.00 0.00 52 1012.4
20260510144205 25 188 0.0 0.0 0.00 0.00 0.00 51 1012.4
20260510143704 25 188 0.0 1.6 0.00 0.00 0.00 48 1012.4
20260510143204 25 188 0.0 0.0 0.00 0.00 0.00 51 1012.4
20260510142704 24 110 0.0 0.0 0.00 0.00 0.00 52 1012.4
20260510142205 24 163 0.0 0.0 0.00 0.00 0.00 54 1012.4
20260510141704 24 163 0.0 1.6 0.00 0.00 0.00 53 1012.4
20260510140704 24 321 0.0 0.0 0.00 0.00 0.00 59 1012.4
20260510135704 23 52 0.0 0.0 0.00 0.00 0.00 62 1012.4
20260510135205 23 53 0.0 0.0 0.00 0.00 0.00 62 1012.4
20260510134705 23 144 0.0 0.0 0.00 0.00 0.00 64 1012.4
20260510134204 23 144 0.0 0.0 0.00 0.00 0.00 65 1012.4
20260510133704 22 57 0.0 0.0 0.00 0.00 0.00 66 1012.4
20260510133204 22 57 0.0 0.0 0.00 0.00 0.00 71 1012.4
20260510132705 21 57 0.0 0.0 0.00 0.00 0.00 70 1011.7
20260510132204 21 57 0.0 0.0 0.00 0.00 0.00 71 1011.7
20260510131704 21 57 0.0 0.0 0.00 0.00 0.00 71 1011.7
20260510131204 21 57 0.0 0.0 0.00 0.00 0.00 71 1011.7
20260510130704 20 57 0.0 0.0 0.00 0.00 0.00 72 1011.7
20260510130204 20 57 0.0 0.0 0.00 0.00 0.00 75 1011.7
20260510125204 19 60 0.0 3.2 0.00 0.00 0.00 79 1011.7
20260510124704 18 61 0.0 0.0 0.00 0.00 0.00 80 1011.7
20260510124204 18 61 0.0 0.0 0.00 0.00 0.00 82 1011.7
20260510123704 18 61 0.0 0.0 0.00 0.00 0.00 84 1011.7
20260510123204 17 31 0.0 0.0 0.00 0.00 0.00 85 1011.7
20260510122704 17 55 0.0 0.0 0.00 0.00 0.00 88 1011.7
20260510122205 17 55 0.0 0.0 0.00 0.00 0.00 89 1011.7
20260510121204 16 55 0.0 0.0 0.00 0.00 0.00 94 1011.1
20260510120705 15 55 0.0 0.0 0.00 0.00 0.00 95 1011.1
20260510120204 15 55 0.0 0.0 0.00 0.00 0.00 97 1011.1
20260510115705 15 55 0.0 0.0 0.00 0.00 0.00 97 1011.1
20260510115204 14 55 0.0 0.0 0.00 0.00 0.00 98 1011.1
20260510114204 13 55 0.0 0.0 0.00 0.00 0.00 98 1011.1
20260510113704 13 55 0.0 0.0 0.00 0.00 0.00 98 1011.1
20260510113204 13 52 0.0 0.0 0.00 0.00 0.00 98 1010.9
20260510112704 13 97 0.0 0.0 0.00 0.00 0.00 97 1010.9
20260510112204 12 97 0.0 0.0 0.00 0.00 0.00 97 1010.9
20260510111704 12 97 0.0 0.0 0.00 0.00 0.00 97 1010.9
20260510111204 12 97 0.0 0.0 0.00 0.00 0.00 97 1010.9
20260510110704 12 101 0.0 0.0 0.00 0.00 0.00 97 1010.0
20260510110204 12 101 0.0 0.0 0.00 0.00 0.00 97 1010.0
20260510105704 12 101 0.0 0.0 0.00 0.00 0.00 97 1010.0
20260510105204 12 101 0.0 0.0 0.00 0.00 0.00 97 1010.0
20260510104704 12 101 0.0 0.0 0.00 0.00 0.00 97 1010.0
20260510104204 11 101 0.0 0.0 0.00 0.00 0.00 97 1010.0
20260510103704 11 101 0.0 0.0 0.00 0.00 0.00 97 1010.0
20260510103204 11 101 0.0 0.0 0.00 0.00 0.00 97 1010.0
20260510102704 11 101 0.0 0.0 0.00 0.00 0.00 97 1010.0
20260510102205 11 101 0.0 0.0 0.00 0.00 0.00 97 1010.0
20260510101704 11 101 0.0 0.0 0.00 0.00 0.00 97 1010.0
20260510101204 12 101 0.0 0.0 0.00 0.00 0.00 96 1010.0
20260510100704 12 101 0.0 0.0 0.00 0.00 0.00 96 1009.9
20260510100204 12 101 0.0 0.0 0.00 0.00 0.00 97 1009.9
20260510095704 12 101 0.0 0.0 0.00 0.00 0.00 97 1009.8
20260510095204 12 101 0.0 0.0 0.00 0.00 0.00 96 1009.8
20260510094704 12 101 0.0 0.0 0.00 0.00 0.00 96 1009.3
20260510094204 12 101 0.0 0.0 0.00 0.00 0.00 96 1009.3
20260510093704 12 101 0.0 0.0 0.00 0.00 0.00 96 1009.3
20260510093204 12 101 0.0 0.0 0.00 0.00 0.00 96 1009.3
20260510092704 12 101 0.0 0.0 0.00 0.00 0.00 96 1009.3
20260510090704 12 101 0.0 0.0 0.00 0.00 0.00 96 1009.3
20260510090204 12 101 0.0 0.0 0.00 0.00 0.00 96 1009.3
20260510085704 12 101 0.0 0.0 0.00 0.00 0.00 96 1009.3
20260510085204 13 101 0.0 0.0 0.00 0.00 0.00 96 1009.3
20260510084704 13 101 0.0 0.0 0.00 0.00 0.00 96 1009.3
20260510084204 13 101 0.0 0.0 0.00 0.00 0.00 96 1009.3
20260510083704 13 101 0.0 0.0 0.00 0.00 0.00 96 1009.3
20260510082704 13 101 0.0 0.0 0.00 0.00 0.00 96 1008.9
20260510082204 13 101 0.0 0.0 0.00 0.00 0.00 96 1008.9
20260510081704 13 101 0.0 0.0 0.00 0.00 0.00 95 1008.9
20260510081204 13 101 0.0 0.0 0.00 0.00 0.00 95 1008.9
20260510080704 13 101 0.0 0.0 0.00 0.00 0.00 95 1008.9
20260510080204 13 101 0.0 0.0 0.00 0.00 0.00 95 1008.9
20260510075704 13 101 0.0 0.0 0.00 0.00 0.00 95 1008.9
20260510075204 13 101 0.0 0.0 0.00 0.00 0.00 95 1008.9
20260510074704 13 101 0.0 0.0 0.00 0.00 0.00 95 1008.9
20260510074204 14 101 0.0 0.0 0.00 0.00 0.00 95 1008.9
20260510073704 14 101 0.0 0.0 0.00 0.00 0.00 94 1008.9
20260510073203 14 101 0.0 0.0 0.00 0.00 0.00 94 1008.9
20260510072204 14 101 0.0 0.0 0.00 0.00 0.00 94 1008.9
20260510071204 15 101 0.0 0.0 0.00 0.00 0.00 94 1009.0
20260510070704 15 101 0.0 0.0 0.00 0.00 0.00 93 1009.0
20260510070204 15 101 0.0 0.0 0.00 0.00 0.00 93 1009.0
20260510065704 15 101 0.0 0.0 0.00 0.00 0.00 93 1009.0
20260510065204 15 101 0.0 0.0 0.00 0.00 0.00 93 1009.0
20260510064704 15 101 0.0 0.0 0.00 0.00 0.00 93 1009.0
20260510064204 15 101 0.0 0.0 0.00 0.00 0.00 93 1009.0
20260510063704 16 101 0.0 0.0 0.00 0.00 0.00 93 1009.0
20260510062704 16 101 0.0 0.0 0.00 0.00 0.00 93 1009.0
20260510062203 16 101 0.0 0.0 0.00 0.00 0.00 93 1009.1
20260510061703 16 101 0.0 0.0 0.00 0.00 0.00 93 1009.1
20260510060704 16 101 0.0 0.0 0.00 0.00 0.00 93 1009.1
20260510055704 16 101 0.0 0.0 0.00 0.00 0.00 92 1009.1
20260510055204 16 101 0.0 0.0 0.00 0.00 0.00 92 1009.1
20260510054704 16 101 0.0 0.0 0.00 0.00 0.00 92 1009.1
20260510054204 16 101 0.0 0.0 0.00 0.00 0.00 92 1009.1
20260510053204 16 101 0.0 0.0 0.00 0.00 0.00 92 1009.1
20260510052704 16 101 0.0 0.0 0.00 0.00 0.00 92 1009.1
20260510052204 16 101 0.0 0.0 0.00 0.00 0.00 92 1009.1
20260510051704 16 101 0.0 0.0 0.00 0.00 0.00 92 1009.1
20260510051204 16 101 0.0 0.0 0.00 0.00 0.00 92 1009.1
20260510050704 15 101 0.0 0.0 0.00 0.00 0.00 92 1009.1
20260510045704 15 101 0.0 0.0 0.00 0.00 0.00 91 1009.1
20260510045204 15 101 0.0 0.0 0.00 0.00 0.00 92 1009.1
20260510044204 15 101 0.0 0.0 0.00 0.00 0.00 91 1009.1
20260510043704 15 101 0.0 0.0 0.00 0.00 0.00 91 1009.0
20260510043204 15 101 0.0 0.0 0.00 0.00 0.00 90 1009.0
20260510042704 15 101 0.0 0.0 0.00 0.00 0.00 90 1009.0
20260510042203 15 101 0.0 0.0 0.00 0.00 0.00 90 1009.0
20260510041703 15 101 0.0 0.0 0.00 0.00 0.00 89 1009.0
20260510041204 15 101 0.0 0.0 0.00 0.00 0.00 89 1009.0
20260510040704 15 101 0.0 0.0 0.00 0.00 0.00 88 1009.0
20260510040204 15 101 0.0 0.0 0.00 0.00 0.00 88 1009.0
20260510035704 15 101 0.0 0.0 0.00 0.00 0.00 88 1008.8
20260510035204 15 101 0.0 0.0 0.00 0.00 0.00 88 1008.8
20260510034704 15 101 0.0 0.0 0.00 0.00 0.00 87 1008.8
20260510034203 15 101 0.0 0.0 0.00 0.00 0.00 87 1008.8
20260510033203 16 101 0.0 0.0 0.00 0.00 0.00 87 1008.8
20260510032703 16 101 0.0 0.0 0.00 0.00 0.00 87 1007.5
20260510032204 16 101 0.0 0.0 0.00 0.00 0.00 86 1007.5
20260510031703 16 101 0.0 0.0 0.00 0.00 0.00 86 1007.5
20260510031204 16 101 0.0 0.0 0.00 0.00 0.00 86 1007.5
20260510025204 16 101 0.0 0.0 0.00 0.00 0.00 85 1007.5
20260510024704 16 101 0.0 0.0 0.00 0.00 0.00 85 1007.5
20260510024203 16 101 0.0 0.0 0.00 0.00 0.00 84 1007.5
20260510023703 16 101 0.0 0.0 0.00 0.00 0.00 83 1007.5
20260510023203 16 101 0.0 0.0 0.00 0.00 0.00 83 1007.5
20260510022703 16 101 0.0 0.0 0.00 0.00 0.00 83 1007.5
20260510022204 16 101 0.0 0.0 0.00 0.00 0.00 82 1007.5
20260510021204 16 101 0.0 0.0 0.00 0.00 0.00 82 1007.5
20260510020704 16 101 0.0 0.0 0.00 0.00 0.00 81 1007.5
20260510020203 16 101 0.0 0.0 0.00 0.00 0.00 80 1007.5
20260510015704 16 101 0.0 0.0 0.00 0.00 0.00 79 1007.5
20260510015204 17 101 0.0 0.0 0.00 0.00 0.00 79 1007.5
20260510014704 17 101 0.0 0.0 0.00 0.00 0.00 78 1007.5
20260510014203 17 101 0.0 0.0 0.00 0.00 0.00 77 1007.5
20260510013703 17 101 0.0 0.0 0.00 0.00 0.00 77 1007.5
20260510013204 17 101 0.0 0.0 0.00 0.00 0.00 77 1007.5
20260510012703 17 101 0.0 0.0 0.00 0.00 0.00 76 1007.5
20260510012203 17 101 0.0 0.0 0.00 0.00 0.00 75 1007.5
20260510011703 17 101 0.0 0.0 0.00 0.00 0.00 75 1007.5
20260510011204 17 101 0.0 0.0 0.00 0.00 0.00 75 1007.5
20260510010704 18 101 0.0 0.0 0.00 0.00 0.00 74 1006.7
20260510010203 18 101 0.0 0.0 0.00 0.00 0.00 73 1006.7
20260510005703 18 101 0.0 0.0 0.00 0.00 0.00 73 1006.7
20260510005203 18 101 0.0 0.0 0.00 0.00 0.00 72 1006.7
20260510004703 18 101 0.0 0.0 0.00 0.00 0.00 71 1006.7
20260510004203 18 101 0.0 0.0 0.00 0.00 0.00 70 1006.7
20260510003704 19 101 0.0 0.0 0.00 0.00 0.00 69 1006.7
20260510003204 19 101 0.0 0.0 0.00 0.00 0.00 69 1006.7
20260510002205 20 132 0.0 0.0 0.00 0.00 0.00 67 1006.7
20260510001705 20 132 0.0 0.0 0.00 0.00 0.00 66 1006.7
20260510001205 20 132 0.0 0.0 0.00 0.00 0.00 65 1006.7
20260510000705 21 132 0.0 0.0 0.00 0.00 0.00 65 1006.7
20260510000206 21 132 0.0 0.0 0.00 0.00 0.00 64 1006.7
20260509235705 21 132 0.0 0.0 0.00 0.00 0.00 63 1006.7
20260509235205 21 132 0.0 0.0 0.00 0.00 0.00 63 1006.7
20260509234705 21 132 0.0 0.0 0.00 0.00 0.00 62 1006.5
20260509233704 22 132 0.0 0.0 0.00 0.00 0.00 60 1006.5
20260509233205 22 86 0.0 0.0 0.00 0.00 0.00 60 1006.5
20260509232705 22 80 0.0 0.0 0.00 0.00 0.00 59 1006.5
20260509232205 22 80 0.0 1.6 0.00 0.00 0.00 58 1006.5
20260509231205 23 243 0.0 0.0 0.00 0.00 0.00 57 1006.5
20260509230705 23 219 0.0 0.0 0.00 0.00 0.00 58 1006.5
20260509225705 23 219 0.0 4.8 0.00 0.00 0.00 56 1006.5
20260509225205 23 37 0.0 0.0 0.00 0.00 0.00 57 1006.5
20260509224705 23 290 0.0 0.0 0.00 0.00 0.00 58 1006.5
20260509224205 23 296 0.0 0.0 0.00 0.00 0.00 58 1006.5
20260509223705 23 269 0.0 1.6 0.00 0.00 0.00 57 1006.5
20260509223205 23 139 0.0 3.2 0.00 0.00 0.00 57 1006.5
20260509222705 23 32 0.0 0.0 0.00 0.00 0.00 60 1006.5
20260509221705 23 33 0.0 0.0 0.00 0.00 0.00 58 1006.4
20260509221205 23 25 0.0 0.0 0.00 0.00 0.00 59 1006.4
20260509220705 23 25 0.0 0.0 0.00 0.00 0.00 60 1006.4
20260509220205 23 284 0.0 1.6 0.00 0.00 0.00 58 1006.4
20260509215205 23 191 0.0 3.2 0.00 0.00 0.00 58 1006.4
20260509214205 23 344 0.0 4.8 0.00 0.00 0.00 57 1006.4
20260509213704 23 217 1.6 8.0 0.00 0.00 0.00 58 1006.4
20260509213204 23 84 0.0 1.6 0.00 0.00 0.00 58 1006.4
20260509212705 23 218 0.0 4.8 0.00 0.00 0.00 57 1006.3
20260509211705 23 171 0.0 0.0 0.00 0.00 0.00 58 1006.3
20260509211205 23 197 0.0 3.2 0.00 0.00 0.00 58 1006.4
20260509210704 23 157 1.6 4.8 0.00 0.00 0.00 57 1006.4
20260509210205 23 240 0.0 4.8 0.00 0.00 0.00 57 1006.4
20260509205204 23 240 0.0 0.0 0.00 0.00 0.00 57 1006.4
20260509204705 23 355 0.0 3.2 0.00 0.00 0.00 57 1006.4
20260509204205 23 242 1.6 4.8 0.00 0.00 0.00 57 1006.4
20260509203704 23 258 1.6 4.8 0.00 0.00 0.00 56 1006.4
20260509203205 23 220 0.0 1.6 0.00 0.00 0.00 57 1006.4
20260509202704 23 92 0.0 4.8 0.00 0.00 0.00 58 1006.4
20260509202205 23 193 0.0 4.8 0.00 0.00 0.00 57 1006.4
20260509201704 23 225 1.6 8.0 0.00 0.00 0.00 55 1006.4
20260509200705 23 346 0.0 3.2 0.00 0.00 0.00 58 1006.5
20260509200204 22 227 0.0 3.2 0.00 0.00 0.00 58 1007.1
20260509195204 22 252 1.6 3.2 0.00 0.00 0.00 57 1007.1
20260509194704 22 326 1.6 4.8 0.00 0.00 0.00 57 1007.1
20260509194205 22 221 0.0 4.8 0.00 0.00 0.00 58 1007.1
20260509193705 22 248 0.0 1.6 0.00 0.00 0.00 57 1007.1
20260509192704 23 240 1.6 8.0 0.00 0.00 0.00 54 1007.1
20260509192205 23 308 0.0 4.8 0.00 0.00 0.00 54 1007.1
20260509191705 23 228 1.6 4.8 0.00 0.00 0.00 55 1007.1
20260509191204 23 252 1.6 4.8 0.00 0.00 0.00 54 1007.1
20260509190704 23 241 1.6 4.8 0.00 0.00 0.00 54 1007.1
20260509190205 23 275 0.0 3.2 0.00 0.00 0.00 56 1007.2
20260509185705 23 242 0.0 4.8 0.00 0.00 0.00 56 1007.6
20260509185205 23 76 0.0 4.8 0.00 0.00 0.00 56 1007.6
20260509184204 23 244 0.0 0.0 0.00 0.00 0.00 56 1007.6
20260509183705 23 236 1.6 8.0 0.00 0.00 0.00 55 1007.6
20260509183205 23 265 1.6 4.8 0.00 0.00 0.00 55 1007.6
20260509182204 23 225 0.0 4.8 0.00 0.00 0.00 56 1007.8
20260509181705 23 101 0.0 3.2 0.00 0.00 0.00 55 1007.8
20260509181204 23 109 1.6 4.8 0.00 0.00 0.00 57 1007.8
20260509180705 23 350 0.0 8.0 0.00 0.00 0.00 58 1008.9